Flag for Norway Weather past 2 weeks in Fredrikstad, Norway

Now
64 °F

Passing clouds.


Feels Like: 64 °F
Forecast: 55 / 72 °F
Wind: 10 mph from South

Location: Rygge

Current Time: Jul 1, 2015 at 9:41:01 PM

Latest Report: Jul 1, 2015 at 8:50 PM


Visibility: N/A

Pressure: 30.27 "Hg

Humidity: 73%

Dew point: 55 °F

Location of FredrikstadLocation

Historic Weather in Fredrikstad — Graph

°F

Fredrikstad temperature yesterday

Maximum temperature yesterday: 73 °F (at 3:50 PM)
Minimum temperature yesterday: 52 °F (at 2:20 AM)
Average temperature yesterday: 64 °F

Past Weeks' High & Low Weather Summary

 TemperatureHumidityPressure
High73 °F (Jun 30, 3:50 PM)100% (Jun 17, 1:50 PM)30.27 "Hg (Jun 17, 1:50 PM)
Low46 °F (Jun 27, 4:20 AM)33% (Jun 20, 1:50 PM)29.59 "Hg (Jun 18, 5:50 AM)
Average59 °F75%29.87 "Hg
* Reported Jun 16 8:20 PM — Jul 1 8:20 PM, Fredrikstad, Weather by CustomWeather, © 2015

Note: Actual official high and low records may vary slightly from our data, if they occured in-between our weather recording intervals... More about our weather records

Advertising

Fredrikstad weather history for previous 24 hours

 ConditionsComfort  
Time TempWeatherWind HumidityBarometerVisibility
8:20 PM
Wed, Jul 1
66 °FSunny.9 mph68%30.27 "Hg10 mi
7:50 PM66 °FSunny.13 mph68%30.27 "Hg10 mi
7:20 PM68 °FSunny.13 mph60%30.27 "Hg10 mi
6:50 PM68 °FSunny.14 mph60%30.27 "Hg10 mi
6:20 PM68 °FSunny.13 mph64%30.27 "Hg10 mi
5:50 PM68 °FSunny.14 mph60%30.27 "Hg10 mi
5:20 PM68 °FSunny.13 mph69%30.27 "Hg10 mi
4:50 PM68 °FPassing clouds.12 mph69%30.24 "HgN/A
4:20 PM70 °FPassing clouds.13 mph69%30.24 "HgN/A
3:50 PM72 °FSunny.12 mph65%30.24 "Hg10 mi
3:20 PM72 °FSunny.12 mph57%30.24 "Hg10 mi
2:50 PM70 °FSunny.12 mph64%30.24 "Hg10 mi
2:20 PM70 °FPassing clouds.12 mph69%30.24 "HgN/A
1:50 PM68 °FSunny.13 mph73%30.24 "Hg10 mi
1:20 PM68 °FSunny.13 mph73%30.24 "Hg10 mi
12:50 PM68 °FSunny.13 mph73%30.24 "Hg10 mi
12:20 PM68 °FSunny.12 mph69%30.24 "Hg10 mi
11:50 AM68 °FSunny.10 mph69%30.24 "Hg10 mi
11:20 AM70 °FPassing clouds.9 mph60%30.24 "HgN/A
10:50 AM68 °FPassing clouds.9 mph69%30.24 "HgN/A
10:20 AM68 °FSunny.9 mph64%30.24 "Hg10 mi
9:50 AM68 °FPassing clouds.7 mph69%30.24 "HgN/A
9:20 AM66 °FPassing clouds.8 mph73%30.21 "HgN/A
8:50 AM64 °FPassing clouds.7 mph78%30.21 "HgN/A
8:20 AM63 °FPartly sunny.7 mph88%30.21 "HgN/A
7:50 AM61 °FPartly sunny.6 mph88%30.21 "HgN/A
7:20 AM59 °FPartly sunny.8 mph94%30.21 "HgN/A
6:50 AM59 °FPartly sunny.6 mph94%30.21 "HgN/A
6:20 AM59 °FPartly sunny.6 mph94%30.21 "HgN/A
5:50 AM57 °FMore clouds than sun.6 mph94%30.21 "HgN/A
5:20 AM57 °FPartly sunny.7 mph94%30.21 "HgN/A
4:50 AM57 °FPassing clouds.7 mph94%30.18 "HgN/A
4:20 AM57 °FPassing clouds.8 mph94%30.18 "HgN/A
3:50 AM57 °FPassing clouds.8 mph94%30.18 "HgN/A
3:20 AM57 °FPassing clouds.6 mph88%30.18 "HgN/A
2:50 AM57 °FOvercast.5 mph82%30.18 "HgN/A
2:20 AM61 °FMostly cloudy.6 mph72%30.18 "HgN/A
1:50 AM61 °FOvercast.7 mph68%30.18 "HgN/A
1:20 AM61 °FOvercast.5 mph68%30.18 "HgN/A
12:50 AM63 °FMostly cloudy.3 mph64%30.18 "HgN/A
12:20 AM63 °FOvercast.6 mph64%30.18 "HgN/A
11:50 PM
Tue, Jun 30
63 °FClear.6 mph68%30.15 "Hg10 mi
11:20 PM64 °FSunny.5 mph64%30.15 "Hg10 mi
10:50 PM64 °FSunny.2 mph68%30.15 "Hg10 mi
10:20 PM64 °FSunny.5 mph64%30.15 "Hg10 mi
9:50 PM64 °FPassing clouds.3 mph64%30.15 "HgN/A
9:20 PM66 °FPassing clouds.5 mph60%30.15 "HgN/A
Weather by CustomWeather, © 2015

See weather overviewHow to use our weather pages